STARLINK-31698, 59379

Orbit data source: Space-Track

STARLINK-31698, 59379 is a payload satellite owned by SpaceX/Seattle (US) in LEO that was launched on Tue, 02 Apr 2024 UTC via an FALCON 9 launch vehicle from the Air Force Western Test Range (AFWTR). Payload-class satellites include a variety of spacecraft equipped with specific instruments for various scientific and technological missions. These include communications satellites like Starlink; space stations such as the ISS; scientific satellites like the Hubble; Earth observation satellites from companies like Planet Labs, Umbra, and HawkEye 360; GPS; miniature CubeSats for education and research; and military/defense satellites.

Loading next visibility...
Identifier
59379, 2024-062F
Orbit
LEO
Country
Flag of USUS
Related business
Manufacturer
SpaceX/Seattle
Mission
Operational Commercial Communications
Bus & Motor
STARLINK V2M, Unknown motor
Mass
730 kg wet, ~700 kg dry
Launch date (UTC)
2024-04-02 (2 years ago)
Launch vehicle
FALCON 9
Launch site
Air Force Western Test Range (AFWTR)
Object type
Payload
Rocket body
Debris
Shape & HBR
Box + 2 Pan, 17.7 m
Radar Cross Section
33.884 m², Large (>1 m²)

Expand to show TLE details & history
Last TLE update: 2 days ago

TLE from 2 days ago
0 STARLINK-31698
1 59379U 24062F   26171.31443767 -.00002599  00000-0 -65860-4 0  9995
2 59379  53.1589 138.2932 0001286  84.9105 275.2045 15.34381418125357
Epoch: 2026-06-20T07:32Z
TLE epoch observation values (Epoch: 2026-06-20T07:32:47.414Z)
Latitude
0.00002°
Longitude
116.56482°
Altitude
463.58 km
Speed
7.636 km/s
True Right ascension
09h 13m 10s
True Declination
0° 00' 00"
Sunlit
Object was in daylight at epoch
Visualization orbit readout
Latitude
Unknown
Longitude
Unknown
Altitude
Unknown
Speed
Unknown
Apparent Right ascension
Unknown
Apparent Declination
Unknown
Sunlit
N/A
Visualization observer readout
Local Sidereal Time
21:31:00
Azimuth
Unknown
Elevation
Unknown
Doppler factor
Unknown
Orbital elements
Apogee altitude
463.895 km
Perigee altitude
462.136 km
Semi-major axis
6,841.153 km
Eccentricity
0.00013
Inclination
53.1589°
RAAN
138.2932°
Arg. of periapsis
84.9105°
True anomaly
275.18982°
Mean anomaly
275.2045°
Eccentric anomaly
275.19716°
Mean motion
3.83574 °/min
Orbital period
93.85 mins
BSTAR
-0.00006586
Loading maneuver chart data...
Computing Atmospheric mass density...
Loading historical data...
Loading historical data...
Loading historical data...
Loading historical data...
Loading historical data...
Loading historical data...
Loading historical data...

Documentation

Showing up to 5 results
|